FENGYUN 3G
Last updated on Mon Jun 22 2026 00:02:46 GMT+0000 (Coordinated Universal Time)
1 56232U 23055A 26172.48258118 .00019904 00000+0 32143-3 0 9996
2 56232 49.9935 323.8862 0007121 314.2701 45.7681 15.52798254180671
Next 0 passes for location: London (51.5072 / 0.1276)
No passes found over London.